User: anonymous   Login
Location: Arrakis Observatory
(44.1122°N, 95.7153°W)
Time: 01:41:42
(UTC-05:00)
Language:

Coronas F rocket - Orbit

View from above orbital plane
View from above orbital plane
View from above satellite
View from above satellite

Ground track
Ground track

The orbit data is extracted from the following two-line orbital elements,

1 26874U 01032B   16125.87321893  .00024351  00000-0  13651-3 0  9993
2 26874  82.4594 329.2535 0007311  18.1702 341.9824 15.79095782828801
Epoch (UTC): 04 May 2016 20:57:26
Eccentricity: 0.0007311
inclination: 82.4594°
perigee height: 328 km
apogee height: 338 km
right ascension of ascending node: 329.2535°
argument of perigee: 18.1702°
revolutions per day: 15.79095782
mean anomaly at epoch: 341.9824°
orbit number at epoch: 82880

The dashed part of the orbit path shows where the satellite is in the earth's shadow,  

DLR